Year,Month,Day,Hour,Minute,Value (Times are PST for temperature in C)
2003,04,04,00,00,5.50
2003,04,04,00,01,5.60
2003,04,04,00,02,5.50
2003,04,04,00,03,5.60
2003,04,04,00,04,5.50
2003,04,04,00,05,5.50
2003,04,04,00,06,5.40
2003,04,04,00,07,5.30
2003,04,04,00,08,5.20
2003,04,04,00,09,5.10
2003,04,04,00,10,5.10
2003,04,04,00,11,5.00
2003,04,04,00,12,4.90
2003,04,04,00,13,4.90
2003,04,04,00,14,4.80
2003,04,04,00,15,4.80
2003,04,04,00,16,4.70
2003,04,04,00,17,4.80
2003,04,04,00,18,4.80
2003,04,04,00,19,4.90
2003,04,04,00,20,4.90
2003,04,04,00,21,5.00
2003,04,04,00,22,5.10
2003,04,04,00,23,5.10
2003,04,04,00,24,5.10
2003,04,04,00,25,5.10
2003,04,04,00,26,5.10
2003,04,04,00,27,5.10
2003,04,04,00,28,5.20
2003,04,04,00,29,5.30
2003,04,04,00,30,5.30
2003,04,04,00,31,5.30
2003,04,04,00,32,5.30
2003,04,04,00,33,5.20
2003,04,04,00,34,5.20
2003,04,04,00,35,5.20
2003,04,04,00,36,5.20
2003,04,04,00,37,5.20
2003,04,04,00,38,5.20
2003,04,04,00,39,5.10
2003,04,04,00,40,5.10
2003,04,04,00,41,5.10
2003,04,04,00,42,5.00
2003,04,04,00,43,4.90
2003,04,04,00,44,4.80
2003,04,04,00,45,4.80
2003,04,04,00,46,4.70
2003,04,04,00,47,4.60
2003,04,04,00,48,4.60
2003,04,04,00,49,4.60
2003,04,04,00,50,4.50
2003,04,04,00,51,4.40
2003,04,04,00,52,4.40
2003,04,04,00,53,4.30
2003,04,04,00,54,4.30
2003,04,04,00,55,4.30
2003,04,04,00,56,4.40
2003,04,04,00,57,4.30
2003,04,04,00,58,4.40
2003,04,04,00,59,4.40
2003,04,04,01,00,4.40
2003,04,04,01,01,4.50
2003,04,04,01,02,4.50
2003,04,04,01,03,4.60
2003,04,04,01,04,4.70
2003,04,04,01,05,4.70
2003,04,04,01,06,4.70
2003,04,04,01,07,4.70
2003,04,04,01,08,4.70
2003,04,04,01,09,4.60
2003,04,04,01,10,4.60
2003,04,04,01,11,4.60
2003,04,04,01,12,4.50
2003,04,04,01,13,4.40
2003,04,04,01,14,4.40
2003,04,04,01,15,4.30
2003,04,04,01,16,4.30
2003,04,04,01,17,4.20
2003,04,04,01,18,4.20
2003,04,04,01,19,4.20
2003,04,04,01,20,4.20
2003,04,04,01,21,4.10
2003,04,04,01,22,4.10
2003,04,04,01,23,4.10
2003,04,04,01,24,4.00
2003,04,04,01,25,4.00
2003,04,04,01,26,4.00
2003,04,04,01,27,4.00
2003,04,04,01,28,3.90
2003,04,04,01,29,3.90
2003,04,04,01,30,3.80
2003,04,04,01,31,3.80
2003,04,04,01,32,3.80
2003,04,04,01,33,3.80
2003,04,04,01,34,3.80
2003,04,04,01,35,3.80
2003,04,04,01,36,3.80
2003,04,04,01,37,3.80
2003,04,04,01,38,3.80
2003,04,04,01,39,3.70
2003,04,04,01,40,3.70
2003,04,04,01,41,3.70
2003,04,04,01,42,3.80
2003,04,04,01,43,3.80
2003,04,04,01,44,3.80
2003,04,04,01,45,3.80
2003,04,04,01,46,3.80
2003,04,04,01,47,3.80
2003,04,04,01,48,3.80
2003,04,04,01,49,3.80
2003,04,04,01,50,3.80
2003,04,04,01,51,3.80
2003,04,04,01,52,3.80
2003,04,04,01,53,3.70
2003,04,04,01,54,3.70
2003,04,04,01,55,3.70
2003,04,04,01,56,3.70
2003,04,04,01,57,3.70
2003,04,04,01,58,3.70
2003,04,04,01,59,3.70
2003,04,04,02,00,3.80
2003,04,04,02,01,3.80
2003,04,04,02,02,3.80
2003,04,04,02,03,3.80
2003,04,04,02,04,3.80
2003,04,04,02,05,4.00
2003,04,04,02,06,4.00
2003,04,04,02,07,4.00
2003,04,04,02,08,4.00
2003,04,04,02,09,4.00
2003,04,04,02,10,4.00
2003,04,04,02,11,4.00
2003,04,04,02,12,4.00
2003,04,04,02,13,4.00
2003,04,04,02,14,4.00
2003,04,04,02,15,4.00
2003,04,04,02,16,4.00
2003,04,04,02,17,4.00
2003,04,04,02,18,4.00
2003,04,04,02,19,3.90
2003,04,04,02,20,3.90
2003,04,04,02,21,3.90
2003,04,04,02,22,3.90
2003,04,04,02,23,3.90
2003,04,04,02,24,3.90
2003,04,04,02,25,3.80
2003,04,04,02,26,3.80
2003,04,04,02,27,3.80
2003,04,04,02,28,3.80
2003,04,04,02,29,3.80
2003,04,04,02,30,3.90
2003,04,04,02,31,4.00
2003,04,04,02,32,4.00
2003,04,04,02,33,4.10
2003,04,04,02,34,4.20
2003,04,04,02,35,4.20
2003,04,04,02,36,4.20
2003,04,04,02,37,4.20
2003,04,04,02,38,4.20
2003,04,04,02,39,4.20
2003,04,04,02,40,4.20
2003,04,04,02,41,4.20
2003,04,04,02,42,4.20
2003,04,04,02,43,4.20
2003,04,04,02,44,4.20
2003,04,04,02,45,4.30
2003,04,04,02,46,4.30
2003,04,04,02,47,4.20
2003,04,04,02,48,4.20
2003,04,04,02,49,4.00
2003,04,04,02,50,4.00
2003,04,04,02,51,3.90
2003,04,04,02,52,3.80
2003,04,04,02,53,3.70
2003,04,04,02,54,3.60
2003,04,04,02,55,3.60
2003,04,04,02,56,3.50
2003,04,04,02,57,3.50
2003,04,04,02,58,3.40
2003,04,04,02,59,3.40
2003,04,04,03,00,3.40
2003,04,04,03,01,3.40
2003,04,04,03,02,3.40
2003,04,04,03,03,3.40
2003,04,04,03,04,3.40
2003,04,04,03,05,3.40
2003,04,04,03,06,3.40
2003,04,04,03,07,3.40
2003,04,04,03,08,3.50
2003,04,04,03,09,3.50
2003,04,04,03,10,3.50
2003,04,04,03,11,3.40
2003,04,04,03,12,3.40
2003,04,04,03,13,3.40
2003,04,04,03,14,3.50
2003,04,04,03,15,3.50
2003,04,04,03,16,3.50
2003,04,04,03,17,3.50
2003,04,04,03,18,3.50
2003,04,04,03,19,3.40
2003,04,04,03,20,3.50
2003,04,04,03,21,3.50
2003,04,04,03,22,3.50
2003,04,04,03,23,3.50
2003,04,04,03,24,3.50
2003,04,04,03,25,3.40
2003,04,04,03,26,3.40
2003,04,04,03,27,3.40
2003,04,04,03,28,3.40
2003,04,04,03,29,3.30
2003,04,04,03,30,3.40
2003,04,04,03,31,3.40
2003,04,04,03,32,3.50
2003,04,04,03,33,3.50
2003,04,04,03,34,3.50
2003,04,04,03,35,3.40
2003,04,04,03,36,3.50
2003,04,04,03,37,3.50
2003,04,04,03,38,3.40
2003,04,04,03,39,3.40
2003,04,04,03,40,3.40
2003,04,04,03,41,3.30
2003,04,04,03,42,3.30
2003,04,04,03,43,3.30
2003,04,04,03,44,3.20
2003,04,04,03,45,3.20
2003,04,04,03,46,3.10
2003,04,04,03,47,3.10
2003,04,04,03,48,3.10
2003,04,04,03,49,3.00
2003,04,04,03,50,2.90
2003,04,04,03,51,2.90
2003,04,04,03,52,2.80
2003,04,04,03,53,2.80
2003,04,04,03,54,2.70
2003,04,04,03,55,2.80
2003,04,04,03,56,2.80
2003,04,04,03,57,2.80
2003,04,04,03,58,2.70
2003,04,04,03,59,2.80
2003,04,04,04,00,2.90
2003,04,04,04,01,3.00
2003,04,04,04,02,3.10
2003,04,04,04,03,3.10
2003,04,04,04,04,3.10
2003,04,04,04,05,3.00
2003,04,04,04,06,2.90
2003,04,04,04,07,2.80
2003,04,04,04,08,2.70
2003,04,04,04,09,2.70
2003,04,04,04,10,2.60
2003,04,04,04,11,2.50
2003,04,04,04,12,2.40
2003,04,04,04,13,2.40
2003,04,04,04,14,2.40
2003,04,04,04,15,2.30
2003,04,04,04,16,2.30
2003,04,04,04,17,2.30
2003,04,04,04,18,2.20
2003,04,04,04,19,2.20
2003,04,04,04,20,2.20
2003,04,04,04,21,2.20
2003,04,04,04,22,2.20
2003,04,04,04,23,2.20
2003,04,04,04,24,2.20
2003,04,04,04,25,2.20
2003,04,04,04,26,2.30
2003,04,04,04,27,2.40
2003,04,04,04,28,2.50
2003,04,04,04,29,2.50
2003,04,04,04,30,2.50
2003,04,04,04,31,2.50
2003,04,04,04,32,2.50
2003,04,04,04,33,2.40
2003,04,04,04,34,2.40
2003,04,04,04,35,2.50
2003,04,04,04,36,2.50
2003,04,04,04,37,2.60
2003,04,04,04,38,2.60
2003,04,04,04,39,2.50
2003,04,04,04,40,2.50
2003,04,04,04,41,2.60
2003,04,04,04,42,2.60
2003,04,04,04,43,2.70
2003,04,04,04,44,2.60
2003,04,04,04,45,2.50
2003,04,04,04,46,2.50
2003,04,04,04,47,2.40
2003,04,04,04,48,2.40
2003,04,04,04,49,2.40
2003,04,04,04,50,2.30
2003,04,04,04,51,2.30
2003,04,04,04,52,2.30
2003,04,04,04,53,2.20
2003,04,04,04,54,2.20
2003,04,04,04,55,2.20
2003,04,04,04,56,2.20
2003,04,04,04,57,2.20
2003,04,04,04,58,2.20
2003,04,04,04,59,2.20
2003,04,04,05,00,2.20
2003,04,04,05,01,2.20
2003,04,04,05,02,2.20
2003,04,04,05,03,2.20
2003,04,04,05,04,2.20
2003,04,04,05,05,2.10
2003,04,04,05,06,2.10
2003,04,04,05,07,2.00
2003,04,04,05,08,2.00
2003,04,04,05,09,1.90
2003,04,04,05,10,1.90
2003,04,04,05,11,1.80
2003,04,04,05,12,1.80
2003,04,04,05,13,1.80
2003,04,04,05,14,1.70
2003,04,04,05,15,1.70
2003,04,04,05,16,1.70
2003,04,04,05,17,1.70
2003,04,04,05,18,1.60
2003,04,04,05,19,1.60
2003,04,04,05,20,1.50
2003,04,04,05,21,1.50
2003,04,04,05,22,1.60
2003,04,04,05,23,1.70
2003,04,04,05,24,1.70
2003,04,04,05,25,1.60
2003,04,04,05,26,1.60
2003,04,04,05,27,1.60
2003,04,04,05,28,1.60
2003,04,04,05,29,1.60
2003,04,04,05,30,1.60
2003,04,04,05,31,1.60
2003,04,04,05,32,1.60
2003,04,04,05,33,1.50
2003,04,04,05,34,1.60
2003,04,04,05,35,1.60
2003,04,04,05,36,1.60
2003,04,04,05,37,1.70
2003,04,04,05,38,1.60
2003,04,04,05,39,1.70
2003,04,04,05,40,1.60
2003,04,04,05,41,1.60
2003,04,04,05,42,1.50
2003,04,04,05,43,1.50
2003,04,04,05,44,1.50
2003,04,04,05,45,1.40
2003,04,04,05,46,1.40
2003,04,04,05,47,1.40
2003,04,04,05,48,1.30
2003,04,04,05,49,1.30
2003,04,04,05,50,1.30
2003,04,04,05,51,1.30
2003,04,04,05,52,1.30
2003,04,04,05,53,1.30
2003,04,04,05,54,1.30
2003,04,04,05,55,1.20
2003,04,04,05,56,1.20
2003,04,04,05,57,1.20
2003,04,04,05,58,1.20
2003,04,04,05,59,1.20
2003,04,04,06,00,1.20
2003,04,04,06,01,1.20
2003,04,04,06,02,1.20
2003,04,04,06,03,1.20
2003,04,04,06,04,1.20
2003,04,04,06,05,1.20
2003,04,04,06,06,1.20
2003,04,04,06,07,1.20
2003,04,04,06,08,1.20
2003,04,04,06,09,1.10
2003,04,04,06,10,1.10
2003,04,04,06,11,1.10
2003,04,04,06,12,1.20
2003,04,04,06,13,1.20
2003,04,04,06,14,1.20
2003,04,04,06,15,1.20
2003,04,04,06,16,1.30
2003,04,04,06,17,1.30
2003,04,04,06,18,1.30
2003,04,04,06,19,1.30
2003,04,04,06,20,1.30
2003,04,04,06,21,1.30
2003,04,04,06,22,1.40
2003,04,04,06,23,1.50
2003,04,04,06,24,1.50
2003,04,04,06,25,1.60
2003,04,04,06,26,1.70
2003,04,04,06,27,1.70
2003,04,04,06,28,1.70
2003,04,04,06,29,1.80
2003,04,04,06,30,1.90
2003,04,04,06,31,2.00
2003,04,04,06,32,2.00
2003,04,04,06,33,2.10
2003,04,04,06,34,2.20
2003,04,04,06,35,2.30
2003,04,04,06,36,2.40
2003,04,04,06,37,2.50
2003,04,04,06,38,2.70
2003,04,04,06,39,2.70
2003,04,04,06,40,2.70
2003,04,04,06,41,2.70
2003,04,04,06,42,2.80
2003,04,04,06,43,2.80
2003,04,04,06,44,2.90
2003,04,04,06,45,2.90
2003,04,04,06,46,2.90
2003,04,04,06,47,3.00
2003,04,04,06,48,3.10
2003,04,04,06,49,3.10
2003,04,04,06,50,3.10
2003,04,04,06,51,3.20
2003,04,04,06,52,3.30
2003,04,04,06,53,3.30
2003,04,04,06,54,3.50
2003,04,04,06,55,3.60
2003,04,04,06,56,3.70
2003,04,04,06,57,3.80
2003,04,04,06,58,3.80
2003,04,04,06,59,3.90
2003,04,04,07,00,3.90
2003,04,04,07,01,3.90
2003,04,04,07,02,4.00
2003,04,04,07,03,4.00
2003,04,04,07,04,4.10
2003,04,04,07,05,4.10
2003,04,04,07,06,4.20
2003,04,04,07,07,4.30
2003,04,04,07,08,4.40
2003,04,04,07,09,4.60
2003,04,04,07,10,4.70
2003,04,04,07,11,4.80
2003,04,04,07,12,4.80
2003,04,04,07,13,4.90
2003,04,04,07,14,4.90
2003,04,04,07,15,5.00
2003,04,04,07,16,5.00
2003,04,04,07,17,4.90
2003,04,04,07,18,5.00
2003,04,04,07,19,5.10
2003,04,04,07,20,5.10
2003,04,04,07,21,5.20
2003,04,04,07,22,5.20
2003,04,04,07,23,5.20
2003,04,04,07,24,5.20
2003,04,04,07,25,5.10
2003,04,04,07,26,5.10
2003,04,04,07,27,5.10
2003,04,04,07,28,5.10
2003,04,04,07,29,5.10
2003,04,04,07,30,5.10
2003,04,04,07,31,5.10
2003,04,04,07,32,5.10
2003,04,04,07,33,5.10
2003,04,04,07,34,5.10
2003,04,04,07,35,5.10
2003,04,04,07,36,5.20
2003,04,04,07,37,5.20
2003,04,04,07,38,5.20
2003,04,04,07,39,5.20
2003,04,04,07,40,5.20
2003,04,04,07,41,5.20
2003,04,04,07,42,5.30
2003,04,04,07,43,5.30
2003,04,04,07,44,5.30
2003,04,04,07,45,5.30
2003,04,04,07,46,5.30
2003,04,04,07,47,5.30
2003,04,04,07,48,5.30
2003,04,04,07,49,5.30
2003,04,04,07,50,5.20
2003,04,04,07,51,5.20
2003,04,04,07,52,5.10
2003,04,04,07,53,5.10
2003,04,04,07,54,5.10
2003,04,04,07,55,5.10
2003,04,04,07,56,5.10
2003,04,04,07,57,5.10
2003,04,04,07,58,5.10
2003,04,04,07,59,5.10
2003,04,04,08,00,4.90
2003,04,04,08,01,5.00
2003,04,04,08,02,5.10
2003,04,04,08,03,5.10
2003,04,04,08,04,5.10
2003,04,04,08,05,5.10
2003,04,04,08,06,5.20
2003,04,04,08,07,5.20
2003,04,04,08,08,5.30
2003,04,04,08,09,5.30
2003,04,04,08,10,5.40
2003,04,04,08,11,5.50
2003,04,04,08,12,5.50
2003,04,04,08,13,5.60
2003,04,04,08,14,5.60
2003,04,04,08,15,5.70
2003,04,04,08,16,5.70
2003,04,04,08,17,5.70
2003,04,04,08,18,5.70
2003,04,04,08,19,5.70
2003,04,04,08,20,5.60
2003,04,04,08,21,5.60
2003,04,04,08,22,5.60
2003,04,04,08,23,5.60
2003,04,04,08,24,5.60
2003,04,04,08,25,5.70
2003,04,04,08,26,5.70
2003,04,04,08,27,5.70
2003,04,04,08,28,5.70
2003,04,04,08,29,5.70
2003,04,04,08,30,5.80
2003,04,04,08,31,5.80
2003,04,04,08,32,5.80
2003,04,04,08,33,5.80
2003,04,04,08,34,5.90
2003,04,04,08,35,6.00
2003,04,04,08,36,6.00
2003,04,04,08,37,6.10
2003,04,04,08,38,6.10
2003,04,04,08,39,6.00
2003,04,04,08,40,6.00
2003,04,04,08,41,6.10
2003,04,04,08,42,6.20
2003,04,04,08,43,6.20
2003,04,04,08,44,6.10
2003,04,04,08,45,6.00
2003,04,04,08,46,5.90
2003,04,04,08,47,5.80
2003,04,04,08,48,5.70
2003,04,04,08,49,5.70
2003,04,04,08,50,5.70
2003,04,04,08,51,5.80
2003,04,04,08,52,5.80
2003,04,04,08,53,5.80
2003,04,04,08,54,5.80
2003,04,04,08,55,5.90
2003,04,04,08,56,5.90
2003,04,04,08,57,5.90
2003,04,04,08,58,5.90
2003,04,04,08,59,5.80
2003,04,04,09,00,5.80
2003,04,04,09,01,5.90
2003,04,04,09,02,5.90
2003,04,04,09,03,5.90
2003,04,04,09,04,6.00
2003,04,04,09,05,6.00
2003,04,04,09,06,5.90
2003,04,04,09,07,5.90
2003,04,04,09,08,5.90
2003,04,04,09,09,5.90
2003,04,04,09,10,6.00
2003,04,04,09,11,6.00
2003,04,04,09,12,6.10
2003,04,04,09,13,6.10
2003,04,04,09,14,6.20
2003,04,04,09,15,6.20
2003,04,04,09,16,6.20
2003,04,04,09,17,6.10
2003,04,04,09,18,6.00
2003,04,04,09,19,6.00
2003,04,04,09,20,6.00
2003,04,04,09,21,6.00
2003,04,04,09,22,6.00
2003,04,04,09,23,6.00
2003,04,04,09,24,6.00
2003,04,04,09,25,6.10
2003,04,04,09,26,6.20
2003,04,04,09,27,6.10
2003,04,04,09,28,6.20
2003,04,04,09,29,6.20
2003,04,04,09,30,6.30
2003,04,04,09,31,6.40
2003,04,04,09,32,6.40
2003,04,04,09,33,6.40
2003,04,04,09,34,6.50
2003,04,04,09,35,6.70
2003,04,04,09,36,6.80
2003,04,04,09,37,6.80
2003,04,04,09,38,6.80
2003,04,04,09,39,6.80
2003,04,04,09,40,6.90
2003,04,04,09,41,7.10
2003,04,04,09,42,7.20
2003,04,04,09,43,7.20
2003,04,04,09,44,7.20
2003,04,04,09,45,7.20
2003,04,04,09,46,7.10
2003,04,04,09,47,7.00
2003,04,04,09,48,7.00
2003,04,04,09,49,7.00
2003,04,04,09,50,7.10
2003,04,04,09,51,7.20
2003,04,04,09,52,7.20
2003,04,04,09,53,7.20
2003,04,04,09,54,7.20
2003,04,04,09,55,7.10
2003,04,04,09,56,7.10
2003,04,04,09,57,7.10
2003,04,04,09,58,7.10
2003,04,04,09,59,7.10
2003,04,04,10,00,7.10
2003,04,04,10,01,7.20
2003,04,04,10,02,7.30
2003,04,04,10,03,7.30
2003,04,04,10,04,7.30
2003,04,04,10,05,7.30
2003,04,04,10,06,7.30
2003,04,04,10,07,7.30
2003,04,04,10,08,7.20
2003,04,04,10,09,7.10
2003,04,04,10,10,7.10
2003,04,04,10,11,7.10
2003,04,04,10,12,7.10
2003,04,04,10,13,7.20
2003,04,04,10,14,7.30
2003,04,04,10,15,7.40
2003,04,04,10,16,7.40
2003,04,04,10,17,7.30
2003,04,04,10,18,7.30
2003,04,04,10,19,7.30
2003,04,04,10,20,7.30
2003,04,04,10,21,7.20
2003,04,04,10,22,7.30
2003,04,04,10,23,7.30
2003,04,04,10,24,7.30
2003,04,04,10,25,7.30
2003,04,04,10,26,7.30
2003,04,04,10,27,7.30
2003,04,04,10,28,7.20
2003,04,04,10,29,7.10
2003,04,04,10,30,7.00
2003,04,04,10,31,6.90
2003,04,04,10,32,6.90
2003,04,04,10,33,6.80
2003,04,04,10,34,6.80
2003,04,04,10,35,6.80
2003,04,04,10,36,6.80
2003,04,04,10,37,6.80
2003,04,04,10,38,6.70
2003,04,04,10,39,6.70
2003,04,04,10,40,6.80
2003,04,04,10,41,6.80
2003,04,04,10,42,6.80
2003,04,04,10,43,6.90
2003,04,04,10,44,7.10
2003,04,04,10,45,7.00
2003,04,04,10,46,6.90
2003,04,04,10,47,6.80
2003,04,04,10,48,6.70
2003,04,04,10,49,6.60
2003,04,04,10,50,6.70
2003,04,04,10,51,6.80
2003,04,04,10,52,7.00
2003,04,04,10,53,7.20
2003,04,04,10,54,7.40
2003,04,04,10,55,7.60
2003,04,04,10,56,7.60
2003,04,04,10,57,7.60
2003,04,04,10,58,7.50
2003,04,04,10,59,7.40
2003,04,04,11,00,7.30
2003,04,04,11,01,7.20
2003,04,04,11,02,7.10
2003,04,04,11,03,7.00
2003,04,04,11,04,6.80
2003,04,04,11,05,6.80
2003,04,04,11,06,6.80
2003,04,04,11,07,6.80
2003,04,04,11,08,6.80
2003,04,04,11,09,6.70
2003,04,04,11,10,6.70
2003,04,04,11,11,6.70
2003,04,04,11,12,6.70
2003,04,04,11,13,6.70
2003,04,04,11,14,6.80
2003,04,04,11,15,6.80
2003,04,04,11,16,6.80
2003,04,04,11,17,6.70
2003,04,04,11,18,6.70
2003,04,04,11,19,6.70
2003,04,04,11,20,6.70
2003,04,04,11,21,6.60
2003,04,04,11,22,6.60
2003,04,04,11,23,6.60
2003,04,04,11,24,6.60
2003,04,04,11,25,6.60
2003,04,04,11,26,6.60
2003,04,04,11,27,6.60
2003,04,04,11,28,6.60
2003,04,04,11,29,6.60
2003,04,04,11,30,6.60
2003,04,04,11,31,6.60
2003,04,04,11,32,6.60
2003,04,04,11,33,6.80
2003,04,04,11,34,6.70
2003,04,04,11,35,6.70
2003,04,04,11,36,6.70
2003,04,04,11,37,6.60
2003,04,04,11,38,6.50
2003,04,04,11,39,6.50
2003,04,04,11,40,6.50
2003,04,04,11,41,6.50
2003,04,04,11,42,6.60
2003,04,04,11,43,6.60
2003,04,04,11,44,6.70
2003,04,04,11,45,6.70
2003,04,04,11,46,6.60
2003,04,04,11,47,6.70
2003,04,04,11,48,6.70
2003,04,04,11,49,6.80
2003,04,04,11,50,6.90
2003,04,04,11,51,7.10
2003,04,04,11,52,7.10
2003,04,04,11,53,7.10
2003,04,04,11,54,7.10
2003,04,04,11,55,7.00
2003,04,04,11,56,6.80
2003,04,04,11,57,6.80
2003,04,04,11,58,6.70
2003,04,04,11,59,6.80
2003,04,04,12,00,6.80
2003,04,04,12,01,6.80
2003,04,04,12,02,6.80
2003,04,04,12,03,7.00
2003,04,04,12,04,7.20
2003,04,04,12,05,7.30
2003,04,04,12,06,7.50
2003,04,04,12,07,7.50
2003,04,04,12,08,7.60
2003,04,04,12,09,7.70
2003,04,04,12,10,7.80
2003,04,04,12,11,7.90
2003,04,04,12,12,7.80
2003,04,04,12,13,7.70
2003,04,04,12,14,7.80
2003,04,04,12,15,7.80
2003,04,04,12,16,7.80
2003,04,04,12,17,7.90
2003,04,04,12,18,7.90
2003,04,04,12,19,7.90
2003,04,04,12,20,7.90
2003,04,04,12,21,7.80
2003,04,04,12,22,7.90
2003,04,04,12,23,8.00
2003,04,04,12,24,8.10
2003,04,04,12,25,8.10
2003,04,04,12,26,8.20
2003,04,04,12,27,8.40
2003,04,04,12,28,8.30
2003,04,04,12,29,7.90
2003,04,04,12,30,7.80
2003,04,04,12,31,7.70
2003,04,04,12,32,7.60
2003,04,04,12,33,7.50
2003,04,04,12,34,7.50
2003,04,04,12,35,7.70
2003,04,04,12,36,7.70
2003,04,04,12,37,7.70
2003,04,04,12,38,7.60
2003,04,04,12,39,7.40
2003,04,04,12,40,7.30
2003,04,04,12,41,7.30
2003,04,04,12,42,7.30
2003,04,04,12,43,7.30
2003,04,04,12,44,7.30
2003,04,04,12,45,7.30
2003,04,04,12,46,7.30
2003,04,04,12,47,7.30
2003,04,04,12,48,7.30
2003,04,04,12,49,7.30
2003,04,04,12,50,7.40
2003,04,04,12,51,7.60
2003,04,04,12,52,7.50
2003,04,04,12,53,7.40
2003,04,04,12,54,7.50
2003,04,04,12,55,7.60
2003,04,04,12,56,7.60
2003,04,04,12,57,7.70
2003,04,04,12,58,7.80
2003,04,04,12,59,7.90
2003,04,04,13,00,7.90
2003,04,04,13,01,8.00
2003,04,04,13,02,8.30
2003,04,04,13,03,8.50
2003,04,04,13,04,8.90
2003,04,04,13,05,9.20
2003,04,04,13,06,9.50
2003,04,04,13,07,9.90
2003,04,04,13,08,10.10
2003,04,04,13,09,10.30
2003,04,04,13,10,10.50
2003,04,04,13,11,10.70
2003,04,04,13,12,10.80
2003,04,04,13,13,10.60
2003,04,04,13,14,10.70
2003,04,04,13,15,10.90
2003,04,04,13,16,11.20
2003,04,04,13,17,11.20
2003,04,04,13,18,10.90
2003,04,04,13,19,10.70
2003,04,04,13,20,10.40
2003,04,04,13,21,10.40
2003,04,04,13,22,10.10
2003,04,04,13,23,9.90
2003,04,04,13,24,9.70
2003,04,04,13,25,9.70
2003,04,04,13,26,9.80
2003,04,04,13,27,9.80
2003,04,04,13,28,9.60
2003,04,04,13,29,9.30
2003,04,04,13,30,9.20
2003,04,04,13,31,8.90
2003,04,04,13,32,9.10
2003,04,04,13,33,9.40
2003,04,04,13,34,9.50
2003,04,04,13,35,9.60
2003,04,04,13,36,9.70
2003,04,04,13,37,9.70
2003,04,04,13,38,9.90
2003,04,04,13,39,10.00
2003,04,04,13,40,10.20
2003,04,04,13,41,10.20
2003,04,04,13,42,10.20
2003,04,04,13,43,10.30
2003,04,04,13,44,10.30
2003,04,04,13,45,10.30
2003,04,04,13,46,10.40
2003,04,04,13,47,10.40
2003,04,04,13,48,10.30
2003,04,04,13,49,10.20
2003,04,04,13,50,10.20
2003,04,04,13,51,10.20
2003,04,04,13,52,10.30
2003,04,04,13,53,10.60
2003,04,04,13,54,10.70
2003,04,04,13,55,10.90
2003,04,04,13,56,10.90
2003,04,04,13,57,10.80
2003,04,04,13,58,10.80
2003,04,04,13,59,10.90
2003,04,04,14,00,10.90
2003,04,04,14,01,11.10
2003,04,04,14,02,11.00
2003,04,04,14,03,11.10
2003,04,04,14,04,11.10
2003,04,04,14,05,11.10
2003,04,04,14,06,11.20
2003,04,04,14,07,11.40
2003,04,04,14,08,11.50
2003,04,04,14,09,11.70
2003,04,04,14,10,11.80
2003,04,04,14,11,11.70
2003,04,04,14,12,11.30
2003,04,04,14,13,11.10
2003,04,04,14,14,11.10
2003,04,04,14,15,11.10
2003,04,04,14,16,11.10
2003,04,04,14,17,11.10
2003,04,04,14,18,11.10
2003,04,04,14,19,10.60
2003,04,04,14,20,9.00
2003,04,04,14,21,8.80
2003,04,04,14,22,8.60
2003,04,04,14,23,8.50
2003,04,04,14,24,8.20
2003,04,04,14,25,8.20
2003,04,04,14,26,8.10
2003,04,04,14,27,7.90
2003,04,04,14,28,7.80
2003,04,04,14,29,7.80
2003,04,04,14,30,7.70
2003,04,04,14,31,7.40
2003,04,04,14,32,7.30
2003,04,04,14,33,7.30
2003,04,04,14,34,7.30
2003,04,04,14,35,7.30
2003,04,04,14,36,7.10
2003,04,04,14,37,7.00
2003,04,04,14,38,7.10
2003,04,04,14,39,7.20
2003,04,04,14,40,7.20
2003,04,04,14,41,7.30
2003,04,04,14,42,7.20
2003,04,04,14,43,7.20
2003,04,04,14,44,7.30
2003,04,04,14,45,7.30
2003,04,04,14,46,7.30
2003,04,04,14,47,7.30
2003,04,04,14,48,7.30
2003,04,04,14,49,7.30
2003,04,04,14,50,7.30
2003,04,04,14,51,7.40
2003,04,04,14,52,7.50
2003,04,04,14,53,7.60
2003,04,04,14,54,7.70
2003,04,04,14,55,7.60
2003,04,04,14,56,7.70
2003,04,04,14,57,7.60
2003,04,04,14,58,7.60
2003,04,04,14,59,7.70
2003,04,04,15,00,7.70
2003,04,04,15,01,7.80
2003,04,04,15,02,7.80
2003,04,04,15,03,7.90
2003,04,04,15,04,7.90
2003,04,04,15,05,8.00
2003,04,04,15,06,8.10
2003,04,04,15,07,8.20
2003,04,04,15,08,8.20
2003,04,04,15,09,8.30
2003,04,04,15,10,8.30
2003,04,04,15,11,8.30
2003,04,04,15,12,8.40
2003,04,04,15,13,8.40
2003,04,04,15,14,8.50
2003,04,04,15,15,8.60
2003,04,04,15,16,8.60
2003,04,04,15,17,8.60
2003,04,04,15,18,8.50
2003,04,04,15,19,8.60
2003,04,04,15,20,8.70
2003,04,04,15,21,8.70
2003,04,04,15,22,8.70
2003,04,04,15,23,8.70
2003,04,04,15,24,8.70
2003,04,04,15,25,8.70
2003,04,04,15,26,8.70
2003,04,04,15,27,8.70
2003,04,04,15,28,9.50
2003,04,04,15,29,9.70
2003,04,04,15,30,9.90
2003,04,04,15,31,10.20
2003,04,04,15,32,10.30
2003,04,04,15,33,10.40
2003,04,04,15,34,10.60
2003,04,04,15,35,10.80
2003,04,04,15,36,11.10
2003,04,04,15,37,11.20
2003,04,04,15,38,11.30
2003,04,04,15,39,11.40
2003,04,04,15,40,11.40
2003,04,04,15,41,11.30
2003,04,04,15,42,11.20
2003,04,04,15,43,11.10
2003,04,04,15,44,11.20
2003,04,04,15,45,11.20
2003,04,04,15,46,10.90
2003,04,04,15,47,10.50
2003,04,04,15,48,10.40
2003,04,04,15,49,10.50
2003,04,04,15,50,10.60
2003,04,04,15,51,10.70
2003,04,04,15,52,10.60
2003,04,04,15,53,10.60
2003,04,04,15,54,10.60
2003,04,04,15,55,10.60
2003,04,04,15,56,10.70
2003,04,04,15,57,10.90
2003,04,04,15,58,11.10
2003,04,04,15,59,11.30
2003,04,04,16,00,11.20
2003,04,04,16,01,11.10
2003,04,04,16,02,10.90
2003,04,04,16,03,10.90
2003,04,04,16,04,11.10
2003,04,04,16,05,11.20
2003,04,04,16,06,11.10
2003,04,04,16,07,11.20
2003,04,04,16,08,11.20
2003,04,04,16,09,10.90
2003,04,04,16,10,10.90
2003,04,04,16,11,11.00
2003,04,04,16,12,11.10
2003,04,04,16,13,11.20
2003,04,04,16,14,11.40
2003,04,04,16,15,11.20
2003,04,04,16,16,11.40
2003,04,04,16,17,11.40
2003,04,04,16,18,11.40
2003,04,04,16,19,11.50
2003,04,04,16,20,11.40
2003,04,04,16,21,11.40
2003,04,04,16,22,11.50
2003,04,04,16,23,11.50
2003,04,04,16,24,11.50
2003,04,04,16,25,11.30
2003,04,04,16,26,11.40
2003,04,04,16,27,11.40
2003,04,04,16,28,11.50
2003,04,04,16,29,11.60
2003,04,04,16,30,11.60
2003,04,04,16,31,11.40
2003,04,04,16,32,11.40
2003,04,04,16,33,11.30
2003,04,04,16,34,11.10
2003,04,04,16,35,11.00
2003,04,04,16,36,11.10
2003,04,04,16,37,10.90
2003,04,04,16,38,10.70
2003,04,04,16,39,10.60
2003,04,04,16,40,10.50
2003,04,04,16,41,10.60
2003,04,04,16,42,10.60
2003,04,04,16,43,10.50
2003,04,04,16,44,10.50
2003,04,04,16,45,10.50
2003,04,04,16,46,10.40
2003,04,04,16,47,10.40
2003,04,04,16,48,10.40
2003,04,04,16,49,10.50
2003,04,04,16,50,10.40
2003,04,04,16,51,10.40
2003,04,04,16,52,10.40
2003,04,04,16,53,10.30
2003,04,04,16,54,10.30
2003,04,04,16,55,10.20
2003,04,04,16,56,10.10
2003,04,04,16,57,10.10
2003,04,04,16,58,9.90
2003,04,04,16,59,9.80
2003,04,04,17,00,9.90
2003,04,04,17,01,9.90
2003,04,04,17,02,9.90
2003,04,04,17,03,9.90
2003,04,04,17,04,9.90
2003,04,04,17,05,9.90
2003,04,04,17,06,10.00
2003,04,04,17,07,10.10
2003,04,04,17,08,10.10
2003,04,04,17,09,10.10
2003,04,04,17,10,10.10
2003,04,04,17,11,10.20
2003,04,04,17,12,10.40
2003,04,04,17,13,10.60
2003,04,04,17,14,10.80
2003,04,04,17,15,10.90
2003,04,04,17,16,10.90
2003,04,04,17,17,10.90
2003,04,04,17,18,10.90
2003,04,04,17,19,10.90
2003,04,04,17,20,11.00
2003,04,04,17,21,11.10
2003,04,04,17,22,11.10
2003,04,04,17,23,11.10
2003,04,04,17,24,11.00
2003,04,04,17,25,10.90
2003,04,04,17,26,10.90
2003,04,04,17,27,10.90
2003,04,04,17,28,10.90
2003,04,04,17,29,10.80
2003,04,04,17,30,10.80
2003,04,04,17,31,10.60
2003,04,04,17,32,10.40
2003,04,04,17,33,10.30
2003,04,04,17,34,10.40
2003,04,04,17,35,10.40
2003,04,04,17,36,10.40
2003,04,04,17,37,10.30
2003,04,04,17,38,10.30
2003,04,04,17,39,10.30
2003,04,04,17,40,10.30
2003,04,04,17,41,10.30
2003,04,04,17,42,10.30
2003,04,04,17,43,10.30
2003,04,04,17,44,10.30
2003,04,04,17,45,10.20
2003,04,04,17,46,10.00
2003,04,04,17,47,10.00
2003,04,04,17,48,10.00
2003,04,04,17,49,9.90
2003,04,04,17,50,9.80
2003,04,04,17,51,9.70
2003,04,04,17,52,9.70
2003,04,04,17,53,9.70
2003,04,04,17,54,9.70
2003,04,04,17,55,9.70
2003,04,04,17,56,9.60
2003,04,04,17,57,9.60
2003,04,04,17,58,9.60